View from above orbital plane
|
View from above satellite
|
Ground track
|
The orbit data is extracted from the following two-line orbital elements,
1 37363U 11005B 21016.99504890 .00000260 00000-0 13174-4 0 9991
2 37363 99.4332 21.6997 0321020 225.1292 132.3446 14.95084157539441
Epoch (UTC): | 16 January 2021 23:52:52 |
Eccentricity: | 0.0321020 |
inclination: | 99.4332° |
perigee height: | 358 km |
apogee height: | 805 km |
right ascension of ascending node: | 21.6997° |
argument of perigee: | 225.1292° |
revolutions per day: | 14.95084157 |
mean anomaly at epoch: | 132.3446° |
orbit number at epoch: | 53944 |
The dashed part of the orbit path shows where the satellite is in the earth's shadow,
|
|